CTV670 WARR-WADL

Flight info

Callsign CTV670
Flight time N/A
Altitude 27000
Route ENTAS W34 AGUNG
Aircraft A320/M-SDE3FGHIRWY/LB1

Departure

Time N/A
Airport Juanda International Airport (WARR)

Arrival

Time 2026-04-23 00:26
Airport Lombok International Airport (WADL)
Time Latitude Longitude Altitude Speed Heading
2026-04-22 23:46 -7.47015 113.46388 19859 ft 457 kts 107°
2026-04-22 23:46 -7.48024 113.49417 20229 ft 459 kts 107°
2026-04-22 23:46 -7.49046 113.52489 20580 ft 461 kts 107°
2026-04-22 23:47 -7.50063 113.55544 20937 ft 463 kts 107°
2026-04-22 23:47 -7.51089 113.58629 21279 ft 465 kts 107°
2026-04-22 23:47 -7.52107 113.61688 21610 ft 467 kts 107°
2026-04-22 23:47 -7.53140 113.64794 21942 ft 469 kts 107°
2026-04-22 23:48 -7.54180 113.67926 22273 ft 471 kts 107°
2026-04-22 23:48 -7.55215 113.71055 22593 ft 473 kts 107°
2026-04-22 23:48 -7.56258 113.74204 22897 ft 475 kts 107°
2026-04-22 23:48 -7.57316 113.77389 23195 ft 476 kts 107°
2026-04-22 23:49 -7.58367 113.80550 23477 ft 478 kts 107°
2026-04-22 23:49 -7.59420 113.83719 23748 ft 480 kts 107°
2026-04-22 23:49 -7.60421 113.86914 24108 ft 478 kts 104°
2026-04-22 23:49 -7.61254 113.90137 24503 ft 476 kts 101°
2026-04-22 23:50 -7.61965 113.93379 24881 ft 474 kts 101°
2026-04-22 23:50 -7.62657 113.96616 25239 ft 474 kts 101°
2026-04-22 23:50 -7.63347 113.99860 25549 ft 474 kts 101°
2026-04-22 23:50 -7.64033 114.03080 25808 ft 475 kts 101°
2026-04-22 23:51 -7.64732 114.06356 26065 ft 476 kts 101°
2026-04-22 23:51 -7.65432 114.09635 26312 ft 477 kts 101°
2026-04-22 23:51 -7.66125 114.12874 26550 ft 478 kts 101°
2026-04-22 23:51 -7.66821 114.16125 26778 ft 479 kts 101°
2026-04-22 23:52 -7.67524 114.19411 26890 ft 480 kts 101°
2026-04-22 23:52 -7.68237 114.22743 26893 ft 485 kts 101°
2026-04-22 23:52 -7.68949 114.26070 26891 ft 487 kts 101°
2026-04-22 23:52 -7.69662 114.29401 26891 ft 487 kts 101°
2026-04-22 23:53 -7.70371 114.32714 26890 ft 488 kts 101°
2026-04-22 23:53 -7.71089 114.36078 26891 ft 487 kts 101°
2026-04-22 23:53 -7.71790 114.39372 26893 ft 488 kts 101°
2026-04-22 23:53 -7.72505 114.42748 26890 ft 488 kts 101°
2026-04-22 23:54 -7.73207 114.46061 26888 ft 487 kts 101°
2026-04-22 23:54 -7.73913 114.49384 26885 ft 488 kts 101°
2026-04-22 23:54 -7.74630 114.52752 26881 ft 488 kts 101°
2026-04-22 23:54 -7.75333 114.56059 26880 ft 488 kts 101°
2026-04-22 23:55 -7.76048 114.59415 26878 ft 488 kts 101°
2026-04-22 23:55 -7.76762 114.62771 26881 ft 488 kts 101°
2026-04-22 23:55 -7.77472 114.66112 26881 ft 489 kts 100°
2026-04-22 23:55 -7.78178 114.69445 26879 ft 488 kts 100°
2026-04-22 23:56 -7.78894 114.72824 26875 ft 489 kts 100°
2026-04-22 23:56 -7.79601 114.76160 26873 ft 489 kts 100°
2026-04-22 23:56 -7.80305 114.79480 26874 ft 489 kts 100°
2026-04-22 23:56 -7.81014 114.82828 26872 ft 489 kts 100°
2026-04-22 23:57 -7.81728 114.86189 26870 ft 489 kts 100°
2026-04-22 23:57 -7.82441 114.89552 26868 ft 489 kts 100°
2026-04-22 23:57 -7.83151 114.92898 26797 ft 488 kts 100°
2026-04-22 23:57 -7.83855 114.96219 26546 ft 483 kts 100°
2026-04-22 23:58 -7.84553 114.99508 26303 ft 480 kts 100°
2026-04-22 23:58 -7.85245 115.02773 26061 ft 477 kts 100°
2026-04-22 23:58 -7.85940 115.06053 25815 ft 475 kts 100°
2026-04-22 23:58 -7.86626 115.09293 25573 ft 474 kts 100°
2026-04-22 23:59 -7.87306 115.12507 25332 ft 474 kts 100°
2026-04-22 23:59 -7.87992 115.15754 25088 ft 475 kts 100°
2026-04-22 23:59 -7.88686 115.19038 24571 ft 476 kts 100°
2026-04-22 23:59 -7.89372 115.22280 23711 ft 477 kts 100°
2026-04-23 00:00 -7.90747 115.28780 22309 ft 466 kts 100°
2026-04-23 00:00 -7.91414 115.31935 21696 ft 461 kts 100°
2026-04-23 00:00 -7.92080 115.35085 21061 ft 456 kts 100°
2026-04-23 00:01 -7.92735 115.38178 20421 ft 451 kts 100°
2026-04-23 00:01 -7.93380 115.41235 19775 ft 447 kts 100°
2026-04-23 00:01 -7.94029 115.44309 19125 ft 443 kts 100°
2026-04-23 00:01 -7.94667 115.47328 18478 ft 440 kts 100°
2026-04-23 00:02 -7.95294 115.50301 17836 ft 436 kts 100°
2026-04-23 00:02 -7.95923 115.53275 17194 ft 432 kts 100°
2026-04-23 00:02 -7.96542 115.56207 16561 ft 429 kts 100°
2026-04-23 00:02 -7.97164 115.59154 15918 ft 425 kts 100°
2026-04-23 00:03 -7.97771 115.62036 15283 ft 421 kts 100°
2026-04-23 00:03 -7.98377 115.64902 14647 ft 417 kts 101°
2026-04-23 00:03 -7.99176 115.67690 14013 ft 415 kts 107°
2026-04-23 00:03 -8.00325 115.70370 13606 ft 412 kts 115°
2026-04-23 00:04 -8.01736 115.72884 13632 ft 416 kts 118°
2026-04-23 00:04 -8.03232 115.75383 13644 ft 417 kts 119°
2026-04-23 00:04 -8.04745 115.77879 13623 ft 417 kts 119°
2026-04-23 00:04 -8.06262 115.80383 13043 ft 416 kts 118°
2026-04-23 00:05 -8.07766 115.82877 12395 ft 412 kts 119°
2026-04-23 00:05 -8.09237 115.85329 11762 ft 407 kts 119°
2026-04-23 00:05 -8.10694 115.87757 11222 ft 400 kts 119°
2026-04-23 00:05 -8.12217 115.90006 10909 ft 377 kts 131°
2026-04-23 00:06 -8.14276 115.91468 10671 ft 351 kts 156°
2026-04-23 00:06 -8.16559 115.92001 10474 ft 326 kts 176°
2026-04-23 00:06 -8.18770 115.92019 10339 ft 303 kts 179°
2026-04-23 00:06 -8.20851 115.91992 10222 ft 299 kts 179°
2026-04-23 00:07 -8.22938 115.91978 10108 ft 297 kts 178°
2026-04-23 00:07 -8.24995 115.91977 10045 ft 294 kts 178°
2026-04-23 00:07 -8.27050 115.91986 9995 ft 291 kts 178°
2026-04-23 00:07 -8.29088 115.92001 9747 ft 292 kts 178°
2026-04-23 00:08 -8.31104 115.92018 9430 ft 290 kts 178°
2026-04-23 00:08 -8.33149 115.92036 9111 ft 289 kts 178°
2026-04-23 00:08 -8.35129 115.92261 8786 ft 285 kts 162°
2026-04-23 00:08 -8.36932 115.93068 8479 ft 280 kts 146°
2026-04-23 00:09 -8.38567 115.94124 8178 ft 278 kts 144°
2026-04-23 00:09 -8.40175 115.95203 7884 ft 276 kts 144°
2026-04-23 00:09 -8.41767 115.96268 7587 ft 274 kts 144°
2026-04-23 00:09 -8.43356 115.97323 7291 ft 272 kts 144°
2026-04-23 00:10 -8.44939 115.98364 6998 ft 270 kts 144°
2026-04-23 00:10 -8.46533 115.99410 6702 ft 268 kts 144°
2026-04-23 00:10 -8.48102 116.00437 6407 ft 267 kts 145°
2026-04-23 00:10 -8.49653 116.01450 6122 ft 265 kts 145°
2026-04-23 00:11 -8.51199 116.02460 5987 ft 254 kts 145°
2026-04-23 00:11 -8.52634 116.03396 5978 ft 239 kts 145°
2026-04-23 00:11 -8.54024 116.04304 5863 ft 236 kts 144°
2026-04-23 00:11 -8.55398 116.05205 5520 ft 238 kts 144°
2026-04-23 00:12 -8.56810 116.06131 5165 ft 240 kts 145°
2026-04-23 00:12 -8.58227 116.07059 4803 ft 242 kts 145°
2026-04-23 00:12 -8.59631 116.07983 4450 ft 244 kts 142°
2026-04-23 00:12 -8.60918 116.09130 4071 ft 244 kts 129°
2026-04-23 00:13 -8.61992 116.10435 3863 ft 237 kts 127°
2026-04-23 00:13 -8.62992 116.11706 3713 ft 229 kts 126°
2026-04-23 00:13 -8.63967 116.12943 3553 ft 220 kts 127°
2026-04-23 00:13 -8.64921 116.14130 3335 ft 209 kts 127°
2026-04-23 00:14 -8.65808 116.15225 3204 ft 190 kts 127°
2026-04-23 00:14 -8.66615 116.16218 3034 ft 175 kts 127°
2026-04-23 00:14 -8.67346 116.17117 3006 ft 155 kts 127°
2026-04-23 00:14 -8.68022 116.17954 2999 ft 152 kts 126°
2026-04-23 00:15 -8.68691 116.18789 3001 ft 152 kts 126°
2026-04-23 00:15 -8.69299 116.19652 2994 ft 150 kts 108°
2026-04-23 00:15 -8.69256 116.20644 2984 ft 145 kts 60°
2026-04-23 00:15 -8.68436 116.21243 2959 ft 159 kts 10°
2026-04-23 00:16 -8.67236 116.21049 3003 ft 195 kts 336°
2026-04-23 00:16 -8.66149 116.20064 3015 ft 230 kts 301°
2026-04-23 00:16 -8.65694 116.18472 3018 ft 246 kts 274°
2026-04-23 00:16 -8.65592 116.16700 3008 ft 251 kts 281°
2026-04-23 00:17 -8.65085 116.15048 3000 ft 244 kts 296°
2026-04-23 00:17 -8.64283 116.13577 2998 ft 235 kts 304°
2026-04-23 00:17 -8.63334 116.12207 2997 ft 242 kts 308°
2026-04-23 00:17 -8.62289 116.10846 2996 ft 242 kts 310°
2026-04-23 00:18 -8.61231 116.09543 2992 ft 242 kts 316°
2026-04-23 00:18 -8.59846 116.08710 2969 ft 224 kts 354°
2026-04-23 00:18 -8.58415 116.08965 2961 ft 202 kts 37°
2026-04-23 00:18 -8.57566 116.10013 3007 ft 193 kts 62°
2026-04-23 00:19 -8.57016 116.11212 3076 ft 181 kts 68°
2026-04-23 00:19 -8.56605 116.12360 3013 ft 165 kts 72°
2026-04-23 00:19 -8.56311 116.13413 2984 ft 148 kts 76°
2026-04-23 00:19 -8.56101 116.14429 3009 ft 147 kts 79°
2026-04-23 00:20 -8.56050 116.15462 2977 ft 148 kts 105°
2026-04-23 00:20 -8.56749 116.16195 2915 ft 153 kts 156°
2026-04-23 00:20 -8.57798 116.16457 2946 ft 156 kts 164°
2026-04-23 00:20 -8.58865 116.16721 2952 ft 156 kts 162°
2026-04-23 00:21 -8.59912 116.17002 2958 ft 156 kts 161°
2026-04-23 00:21 -8.60958 116.17299 2963 ft 156 kts 161°
2026-04-23 00:21 -8.62013 116.17607 2950 ft 156 kts 160°
2026-04-23 00:21 -8.63057 116.17915 2882 ft 154 kts 160°
2026-04-23 00:22 -8.64051 116.18210 2785 ft 144 kts 160°
2026-04-23 00:22 -8.65012 116.18497 2713 ft 142 kts 160°
2026-04-23 00:22 -8.65970 116.18784 2633 ft 141 kts 160°
2026-04-23 00:22 -8.66911 116.19066 2529 ft 141 kts 159°
2026-04-23 00:23 -8.67863 116.19363 2215 ft 143 kts 159°
2026-04-23 00:23 -8.68786 116.19678 1975 ft 138 kts 155°
2026-04-23 00:23 -8.69615 116.20172 1891 ft 138 kts 137°
2026-04-23 00:23 -8.70320 116.20830 1734 ft 139 kts 132°
2026-04-23 00:24 -8.70976 116.21568 1560 ft 139 kts 128°
2026-04-23 00:24 -8.71587 116.22327 1392 ft 139 kts 127°
2026-04-23 00:24 -8.72209 116.23068 1233 ft 139 kts 129°
2026-04-23 00:24 -8.72813 116.23827 1023 ft 138 kts 125°
2026-04-23 00:25 -8.73399 116.24604 820 ft 138 kts 128°
2026-04-23 00:25 -8.74001 116.25363 605 ft 137 kts 127°
2026-04-23 00:25 -8.74596 116.26114 435 ft 135 kts 128°
2026-04-23 00:25 -8.75180 116.26845 324 ft 129 kts 127°
2026-04-23 00:26 -8.75658 116.27446 321 ft 86 kts 129°
2026-04-23 00:26 -8.75923 116.27776 324 ft 32 kts 129°
2026-04-23 00:26 -8.75998 116.27836 325 ft 7 kts 189°
2026-04-23 00:26 -8.76046 116.27800 325 ft 9 kts 219°
2026-04-23 00:27 -8.76101 116.27755 325 ft 10 kts 219°
2026-04-23 00:27 -8.76161 116.27706 325 ft 9 kts 219°
2026-04-23 00:27 -8.76175 116.27643 324 ft 11 kts 303°
2026-04-23 00:27 -8.76132 116.27589 324 ft 8 kts 309°
2026-04-23 00:28 -8.76113 116.27548 323 ft 5 kts 251°
2026-04-23 00:28 -8.76147 116.27515 323 ft 7 kts 219°
2026-04-23 00:28 -8.76170 116.27496 323 ft 1 kts 220°